SCP
0 0 0 0 0 1 1 1 1 4 3 1 4 4 3 1 1 1 1 2 6 5 5 4 2 2 1 1 1 1 0 1 0 0 1 1 0 0 0 0 0 0 0
0 0 0 0 0 0 0 1 0 1 1 1 0 0 0 0 0 0 1 3 6 7 5 3 3 2 1 1 1 1 1 1 0 0 1 1 0 0 0 0 0 0 0
0 0 0 0 0 0 0 0 0 0 1 1 1 1 1 1 1 2 2 5 5 6 5 3 2 1 1 1 1 1 0 0 0 1 1 0 0 0 0 0 0 0 0
0 0 0 0 0 0 0 0 0 0 0 0 1 1 1 1 0 2 5 6 6 5 3 2 1 1 1 1 1 1 0 1 0 1 0 0 0 0 0 0 0 0 0
0 0 0 0 0 0 0 1 1 0 0 0 1 1 1 1 1 2 4 7 5 4 3 2 1 1 1 1 1 1 0 0 1 0 0 0 0 0 0 0 0 0 0
0 0 0 0 0 0 0 0 0 0 0 0 1 1 1 2 3 4 5 5 4 3 2 1 1 1 1 1 0 1 1 1 0 0 0 0 0 0 0 0 0 0 0
0 0 0 0 0 0 0 0 0 0 0 0 1 1 1 1 1 2 4 3 3 3 2 1 1 1 1 1 1 1 1 0 0 0 0 0 0 0 0 0 0 0 0
0 0 0 0 0 0 0 0 0 0 0 0 1 2 1 2 1 2 2 3 2 2 1 1 1 1 1 1 1 1 1 1 0 0 0 0 0 0 0 0 0 0 0
0 0 0 0 0 0 0 0 0 0 0 1 2 2 1 1 2 2 2 2 1 2 1 1 1 1 1 1 1 1 1 0 0 0 0 0 0 0 0 0 0 0 0
0 0 0 0 0 0 1 1 0 0 1 1 1 3 2 2 1 2 2 1 1 1 1 1 0 0 0 1 0 0 0 0 0 0 0 0 0 0 0 0 0 0 0
-0 0 0 0 1 2 2 1 0 0 0 1 3 3 2 1 1 1 1 1 1 1 1 0 0 0 0 0 0 0 0 0 0 0 0 0 0 0 0 0 0 0 0
0 0 0 2 2 2 1 1 0 1 2 3 3 1 1 1 2 1 1 2 1 0 0 0 0 0 0 0 0 0 0 0 0 0 0 0 0 0 0 0 0 0 0
0 0 0 2 2 1 0 0 1 3 3 2 2 1 1 1 1 1 1 1 0 0 0 0 0 0 0 0 0 0 0 0 0 0 0 0 0 0 0 0 0 0 0
0 0 0 2 1 1 1 0 2 3 2 1 1 1 1 1 1 1 1 0 0 0 0 0 0 0 0 0 0 0 0 0 0 0 0 0 0 0 0 0 0 0 0
0 0 0 1 0 0 0 1 2 2 1 1 1 1 1 1 0 0 0 0 0 0 0 0 0 0 0 0 0 0 0 0 0 0 0 0 0 0 0 0 0 0 0
0 0 -0 0 0 0 1 2 2 1 1 1 1 1 0 0 0 0 0 0 0 0 0 0 0 0 0 0 0 0 0 0 0 0 0 0 0 -0 0 0 0 0 0
0 -0 -0 -0 -0 0 1 0 1 1 1 1 0 0 0 0 0 0 0 0 0 0 0 0 0 0 0 0 0 0 0 0 0 0 0 0 0 -0 0 0 0 0 0
0 -0 -0 -0 -0 -0 0 0 0 0 0 0 0 0 0 0 0 0 0 0 0 0 0 0 0 0 0 0 0 0 0 0 0 0 0 0 0 0 -0 0 0 0 0
0 0 -0 -0 -0 -0 0 0 0 0 0 0 0 0 0 0 0 0 0 0 0 0 0 0 0 0 0 0 0 0 0 0 0 0 0 0 0 0 0 0 0 0 0
0 0 0 -0 -0 -0 0 0 0 0 0 0 0 -0 0 0 0 0 0 0 0 0 0 0 0 0 0 0 0 0 0 0 0 0 0 -0 0 0 -0 0 0 0 0
0 0 0 0 0 -0 0 0 0 0 0 0 -0 0 0 0 0 0 0 0 0 0 0 -0 0 0 0 0 0 0 0 0 0 0 0 -0 0 0 0 0 0 0 0
0 0 0 0 -0 0 0 1 0 0 0 -0 -0 -0 0 0 0 -0 0 -0 -0 0 0 0 0 0 0 0 0 0 0 0 0 0 0 0 0 0 0 0 -0 -0 0
0 0 0 0 -0 0 0 0 0 0 -0 -0 -0 -0 0 0 0 -0 -0 0 0 0 0 0 0 0 0 0 0 -0 -0 -0 0 -0 -0 0 0 0 0 0 -0 0 0
0 0 0 0 -0 0 0 0 0 -0 -0 -0 -0 -0 -0 -0 -0 -0 -0 0 0 0 0 0 0 0 0 0 0 -0 -0 -0 -0 -0 -0 0 0 0 0 0 0 0 0
0 0 0 0 -0 0 0 0 0 0 0 -0 0 -0 0 -0 -0 -0 0 0 0 0 0 0 0 -0 -0 0 -0 -0 -0 -0 -0 -0 0 0 0 0 0 0 0 0 0
0 0 0 0 0 0 0 0 0 0 -0 -0 0 -0 0 0 -0 -0 0 -0 -0 0 0 -0 -0 -0 0 -0 -0 -0 -0 -0 -0 -0 -0 -0 0 0 0 0 0 0 0
Wind_Speed_500mb
86 88 75 77 76 73 69 64 59 57 60 56 61 65 64 59 58 59 64 64 65 63 66 66 57 53 54 55 51 53 57 54 54 43 42 43 48 50 53 35 36 43 38
72 76 69 73 76 82 76 74 71 69 65 58 52 60 62 67 68 70 63 64 56 60 64 64 56 52 53 59 52 55 52 51 50 48 46 43 46 45 35 32 33 37 44
87 80 78 86 65 84 89 81 76 73 72 62 54 56 68 76 71 65 50 55 55 57 63 60 52 49 51 52 55 52 53 53 51 43 37 15 15 9 18 22 26 29 30
50 89 87 97 92 71 76 81 68 58 63 63 59 58 63 74 70 59 53 59 61 59 59 55 49 47 43 42 49 45 52 48 48 39 47 44 22 14 9 11 13 21 24
66 56 86 84 71 50 57 58 55 54 52 55 62 65 60 66 65 49 54 57 60 61 54 52 47 47 37 41 41 45 39 48 45 41 37 31 25 28 29 27 17 16 17
71 66 78 85 71 68 66 61 60 62 64 66 71 66 64 64 59 48 49 61 61 56 50 45 40 49 34 36 43 38 29 36 47 36 34 31 28 25 23 21 19 16 13
88 85 73 62 71 70 67 67 63 66 65 69 72 71 77 61 52 56 59 63 63 55 45 40 38 45 37 43 31 36 32 36 35 36 34 31 31 24 21 20 15 12 14
89 77 56 85 78 78 84 77 70 66 64 65 76 85 77 64 58 62 65 71 63 54 47 41 39 43 39 44 37 33 32 33 33 33 31 30 28 27 22 20 18 16 14
82 66 21 42 56 66 64 61 67 70 72 72 70 76 72 66 64 64 60 65 49 46 47 38 46 43 41 41 37 32 32 33 31 25 28 27 29 30 21 21 20 23 19
66 16 10 10 22 28 33 34 42 57 72 67 65 66 67 66 58 66 62 57 44 32 39 45 48 43 43 37 31 27 29 27 22 17 23 23 28 28 20 24 23 24 21
65 4 4 13 17 24 32 41 40 42 61 56 56 56 56 52 58 56 52 47 39 34 43 47 44 44 41 36 30 27 23 20 14 24 23 20 21 19 18 20 22 22 27
47 37 22 17 23 28 42 60 40 50 52 50 49 46 44 53 60 52 53 46 41 40 43 48 45 40 36 30 27 25 21 23 18 19 26 23 20 18 18 19 21 22 28
36 83 36 24 25 40 43 58 49 54 51 47 43 48 56 58 58 59 55 51 46 47 46 41 31 29 33 27 19 20 21 26 26 24 21 22 25 22 25 22 27 23 26
74 84 47 19 26 33 36 45 55 57 49 46 52 56 61 63 60 58 56 56 55 45 38 30 26 27 27 24 15 25 24 24 25 27 22 23 22 22 22 24 32 28 33
88 89 21 20 35 38 47 72 66 59 54 56 56 60 57 48 47 45 45 44 46 44 38 37 31 30 30 27 21 25 28 30 26 25 22 23 21 24 23 27 30 36 36
72 43 15 23 37 43 39 65 66 64 64 60 54 48 48 48 46 42 40 39 42 41 35 36 33 32 29 25 24 27 27 24 23 23 23 21 20 26 26 26 31 36 37
82 18 20 25 43 46 26 61 66 62 66 58 53 51 54 49 45 44 41 37 36 39 36 37 30 28 28 25 25 25 25 20 15 12 19 18 16 26 24 28 29 27 24
80 30 33 45 45 43 61 61 63 61 60 60 57 52 49 46 42 41 45 37 35 34 40 33 33 29 25 23 22 23 23 18 19 14 12 17 19 25 25 25 27 30 29
67 32 29 31 46 35 34 62 67 65 62 61 56 53 46 44 43 41 46 38 36 33 35 32 29 26 21 19 21 21 18 16 17 15 16 20 21 27 29 32 37 32 24
60 61 55 51 47 44 40 58 70 68 61 56 52 53 49 39 42 43 45 41 36 34 33 30 24 21 18 22 22 19 15 14 17 16 18 22 22 32 38 38 36 33 31
66 57 57 57 49 30 41 52 69 64 55 49 63 56 42 44 41 45 43 36 31 35 33 29 23 18 22 22 21 20 15 12 14 17 20 18 27 40 41 35 30 26 38
66 58 59 52 34 30 37 66 60 57 56 54 54 48 49 41 38 40 38 30 36 37 36 26 22 17 22 21 21 19 16 12 8 18 23 16 34 38 38 36 30 28 31
60 58 51 52 44 51 36 53 54 58 63 58 60 53 44 39 38 36 34 38 37 39 36 28 29 21 22 22 20 17 17 16 14 23 26 21 36 32 28 32 30 31 32
55 47 45 37 49 28 45 53 53 55 69 61 55 48 40 32 32 27 28 35 38 38 33 31 33 26 22 23 19 15 16 16 18 30 32 31 36 33 33 38 32 30 34
46 47 47 40 51 46 46 46 53 67 60 50 47 42 42 37 36 31 29 26 30 35 31 32 24 28 25 19 13 9 13 17 24 36 37 39 41 38 39 40 32 31 31
43 46 44 38 38 49 54 51 55 57 52 52 48 50 39 39 38 31 27 24 25 32 35 33 23 17 16 17 18 12 13 20 29 36 44 47 43 41 42 37 33 29 25
Wind_Direction_500mb
248 255 260 258 258 258 233 228 224 228 225 225 234 244 249 256 259 263 265 264 259 252 259 257 250 251 251 240 238 238 238 240 243 242 246 254 261 267 267 267 261 258 256
245 236 241 256 257 252 235 228 231 230 233 234 240 242 247 252 260 265 266 264 254 251 251 249 250 253 250 234 234 234 236 238 239 242 245 251 263 264 254 263 266 265 260
236 239 246 247 262 260 239 226 218 221 235 243 236 241 246 254 257 257 256 250 248 248 251 251 250 255 244 232 231 236 234 238 235 232 229 221 229 242 247 258 262 265 268
273 240 239 243 244 252 235 223 222 225 239 244 244 246 253 255 255 255 251 238 241 246 247 250 253 250 225 229 232 233 233 235 240 234 233 236 252 252 253 261 271 280 277
268 261 237 244 240 229 218 222 227 233 233 238 251 261 262 257 255 258 243 234 238 245 245 247 249 223 220 228 229 228 238 235 231 229 224 227 240 253 258 266 275 289 269
267 255 247 239 240 237 229 221 235 241 246 256 259 259 260 255 248 243 236 233 236 235 242 248 228 204 219 232 218 224 232 220 210 223 230 231 230 252 253 247 256 277 259
286 272 238 233 246 236 238 250 252 246 249 250 252 252 252 248 244 230 231 229 231 231 243 222 222 197 213 212 213 215 209 214 219 228 233 231 231 243 241 243 238 245 231
281 275 259 243 231 238 249 252 252 255 250 244 243 245 244 244 239 227 230 237 239 243 236 223 193 201 208 207 207 214 224 221 231 236 232 224 229 237 234 247 251 216 208
276 271 228 224 227 236 235 234 238 242 246 246 246 239 232 235 230 229 230 234 234 235 232 216 190 199 204 209 205 216 223 234 231 233 230 232 230 230 235 243 240 218 195
282 179 208 195 180 199 227 238 244 245 241 238 237 226 230 226 233 225 225 217 223 222 200 185 188 193 198 202 216 226 228 223 214 240 226 230 225 236 246 239 228 214 213
316 175 262 271 214 215 224 233 247 242 227 226 218 220 222 227 210 213 208 215 202 187 182 186 187 188 194 209 222 228 203 204 232 235 229 224 222 238 244 226 228 216 209
322 330 345 277 251 258 250 237 245 222 210 207 208 214 220 194 195 197 202 196 187 176 180 182 185 196 205 224 214 205 207 209 234 247 241 227 228 230 226 220 213 208 203
334 329 318 259 273 283 256 232 216 201 192 193 202 194 188 188 189 194 189 185 181 172 178 183 188 218 212 191 207 222 205 209 238 244 234 235 232 236 223 213 202 195 189
302 316 293 305 303 255 252 206 191 183 183 190 182 179 179 175 181 182 172 173 163 167 172 179 190 193 182 190 206 187 215 235 242 252 243 233 227 241 223 210 190 195 195
290 293 312 342 307 241 219 187 176 178 178 177 175 169 172 176 181 169 169 162 160 166 176 178 186 190 193 199 207 208 228 240 254 240 228 229 239 239 219 204 187 196 194
296 290 343 337 308 259 237 180 176 171 170 171 172 168 167 174 172 164 160 162 167 179 187 183 189 182 194 213 217 224 236 237 237 234 230 238 252 223 209 194 192 202 202
338 320 322 319 340 308 207 165 161 169 162 162 162 164 165 167 166 166 170 167 171 168 176 182 187 198 209 204 225 229 238 243 228 234 232 247 204 188 184 181 192 199 203
335 314 318 316 338 334 163 175 157 159 149 151 156 160 163 165 170 169 164 166 175 173 178 190 194 205 211 223 235 227 226 224 223 241 221 176 182 183 183 183 180 175 183
331 319 303 315 329 287 172 161 152 149 148 152 158 163 168 166 169 169 167 175 177 181 181 193 192 202 220 234 212 203 192 219 218 206 185 181 181 175 181 179 168 161 162
323 319 319 324 317 315 213 158 145 149 150 160 160 169 172 166 165 171 177 179 188 186 186 190 193 208 214 188 183 179 184 204 200 196 192 191 184 172 179 178 178 170 152
302 308 320 327 328 330 200 163 154 157 156 160 170 174 165 162 167 177 182 180 182 182 185 187 186 208 180 179 173 175 184 209 204 185 179 186 181 172 179 181 181 169 153
293 303 328 331 313 259 222 149 160 158 164 170 175 171 159 162 169 176 179 182 179 181 176 178 169 167 175 181 187 184 190 194 212 175 165 158 163 170 174 173 169 164 160
289 300 318 320 288 182 208 163 158 164 159 152 149 147 152 160 167 170 178 175 181 183 178 177 170 174 173 177 177 182 193 214 174 172 168 152 159 172 162 163 170 174 173
292 298 307 301 279 246 182 167 167 166 152 142 142 148 152 150 156 167 175 178 184 185 186 187 172 168 170 178 176 179 187 184 175 166 169 159 156 159 157 159 174 180 174
283 284 289 294 282 262 183 162 159 155 146 146 138 143 150 155 156 158 165 178 192 192 189 180 178 172 173 176 176 177 186 183 173 162 163 159 158 156 152 166 171 170 178
278 287 287 295 253 199 169 160 155 160 155 146 148 149 153 166 171 170 167 177 190 191 189 195 187 145 167 172 170 146 165 166 164 166 168 168 167 167 167 168 168 172 178
Wind_Speed_850mb
86 88 75 77 76 73 69 64 59 57 60 56 61 65 64 59 58 59 64 64 65 63 66 66 57 53 54 55 51 53 57 54 54 43 42 43 48 50 53 35 36 43 38
72 76 69 73 76 82 76 74 71 69 65 58 52 60 62 67 68 70 63 64 56 60 64 64 56 52 53 59 52 55 52 51 50 48 46 43 46 45 35 32 33 37 44
87 80 78 86 65 84 89 81 76 73 72 62 54 56 68 76 71 65 50 55 55 57 63 60 52 49 51 52 55 52 53 53 51 43 37 15 15 9 18 22 26 29 30
50 89 87 97 92 71 76 81 68 58 63 63 59 58 63 74 70 59 53 59 61 59 59 55 49 47 43 42 49 45 52 48 48 39 47 44 22 14 9 11 13 21 24
66 56 86 84 71 50 57 58 55 54 52 55 62 65 60 66 65 49 54 57 60 61 54 52 47 47 37 41 41 45 39 48 45 41 37 31 25 28 29 27 17 16 17
71 66 78 85 71 68 66 61 60 62 64 66 71 66 64 64 59 48 49 61 61 56 50 45 40 49 34 36 43 38 29 36 47 36 34 31 28 25 23 21 19 16 13
88 85 73 62 71 70 67 67 63 66 65 69 72 71 77 61 52 56 59 63 63 55 45 40 38 45 37 43 31 36 32 36 35 36 34 31 31 24 21 20 15 12 14
89 77 56 85 78 78 84 77 70 66 64 65 76 85 77 64 58 62 65 71 63 54 47 41 39 43 39 44 37 33 32 33 33 33 31 30 28 27 22 20 18 16 14
82 66 21 42 56 66 64 61 67 70 72 72 70 76 72 66 64 64 60 65 49 46 47 38 46 43 41 41 37 32 32 33 31 25 28 27 29 30 21 21 20 23 19
66 16 10 10 22 28 33 34 42 57 72 67 65 66 67 66 58 66 62 57 44 32 39 45 48 43 43 37 31 27 29 27 22 17 23 23 28 28 20 24 23 24 21
65 4 4 13 17 24 32 41 40 42 61 56 56 56 56 52 58 56 52 47 39 34 43 47 44 44 41 36 30 27 23 20 14 24 23 20 21 19 18 20 22 22 27
47 37 22 17 23 28 42 60 40 50 52 50 49 46 44 53 60 52 53 46 41 40 43 48 45 40 36 30 27 25 21 23 18 19 26 23 20 18 18 19 21 22 28
36 83 36 24 25 40 43 58 49 54 51 47 43 48 56 58 58 59 55 51 46 47 46 41 31 29 33 27 19 20 21 26 26 24 21 22 25 22 25 22 27 23 26
74 84 47 19 26 33 36 45 55 57 49 46 52 56 61 63 60 58 56 56 55 45 38 30 26 27 27 24 15 25 24 24 25 27 22 23 22 22 22 24 32 28 33
88 89 21 20 35 38 47 72 66 59 54 56 56 60 57 48 47 45 45 44 46 44 38 37 31 30 30 27 21 25 28 30 26 25 22 23 21 24 23 27 30 36 36
72 43 15 23 37 43 39 65 66 64 64 60 54 48 48 48 46 42 40 39 42 41 35 36 33 32 29 25 24 27 27 24 23 23 23 21 20 26 26 26 31 36 37
82 18 20 25 43 46 26 61 66 62 66 58 53 51 54 49 45 44 41 37 36 39 36 37 30 28 28 25 25 25 25 20 15 12 19 18 16 26 24 28 29 27 24
80 30 33 45 45 43 61 61 63 61 60 60 57 52 49 46 42 41 45 37 35 34 40 33 33 29 25 23 22 23 23 18 19 14 12 17 19 25 25 25 27 30 29
67 32 29 31 46 35 34 62 67 65 62 61 56 53 46 44 43 41 46 38 36 33 35 32 29 26 21 19 21 21 18 16 17 15 16 20 21 27 29 32 37 32 24
60 61 55 51 47 44 40 58 70 68 61 56 52 53 49 39 42 43 45 41 36 34 33 30 24 21 18 22 22 19 15 14 17 16 18 22 22 32 38 38 36 33 31
66 57 57 57 49 30 41 52 69 64 55 49 63 56 42 44 41 45 43 36 31 35 33 29 23 18 22 22 21 20 15 12 14 17 20 18 27 40 41 35 30 26 38
66 58 59 52 34 30 37 66 60 57 56 54 54 48 49 41 38 40 38 30 36 37 36 26 22 17 22 21 21 19 16 12 8 18 23 16 34 38 38 36 30 28 31
60 58 51 52 44 51 36 53 54 58 63 58 60 53 44 39 38 36 34 38 37 39 36 28 29 21 22 22 20 17 17 16 14 23 26 21 36 32 28 32 30 31 32
55 47 45 37 49 28 45 53 53 55 69 61 55 48 40 32 32 27 28 35 38 38 33 31 33 26 22 23 19 15 16 16 18 30 32 31 36 33 33 38 32 30 34
46 47 47 40 51 46 46 46 53 67 60 50 47 42 42 37 36 31 29 26 30 35 31 32 24 28 25 19 13 9 13 17 24 36 37 39 41 38 39 40 32 31 31
43 46 44 38 38 49 54 51 55 57 52 52 48 50 39 39 38 31 27 24 25 32 35 33 23 17 16 17 18 12 13 20 29 36 44 47 43 41 42 37 33 29 25
Wind_Direction_850mb
248 255 260 258 258 258 233 228 224 228 225 225 234 244 249 256 259 263 265 264 259 252 259 257 250 251 251 240 238 238 238 240 243 242 246 254 261 267 267 267 261 258 256
245 236 241 256 257 252 235 228 231 230 233 234 240 242 247 252 260 265 266 264 254 251 251 249 250 253 250 234 234 234 236 238 239 242 245 251 263 264 254 263 266 265 260
236 239 246 247 262 260 239 226 218 221 235 243 236 241 246 254 257 257 256 250 248 248 251 251 250 255 244 232 231 236 234 238 235 232 229 221 229 242 247 258 262 265 268
273 240 239 243 244 252 235 223 222 225 239 244 244 246 253 255 255 255 251 238 241 246 247 250 253 250 225 229 232 233 233 235 240 234 233 236 252 252 253 261 271 280 277
268 261 237 244 240 229 218 222 227 233 233 238 251 261 262 257 255 258 243 234 238 245 245 247 249 223 220 228 229 228 238 235 231 229 224 227 240 253 258 266 275 289 269
267 255 247 239 240 237 229 221 235 241 246 256 259 259 260 255 248 243 236 233 236 235 242 248 228 204 219 232 218 224 232 220 210 223 230 231 230 252 253 247 256 277 259
286 272 238 233 246 236 238 250 252 246 249 250 252 252 252 248 244 230 231 229 231 231 243 222 222 197 213 212 213 215 209 214 219 228 233 231 231 243 241 243 238 245 231
281 275 259 243 231 238 249 252 252 255 250 244 243 245 244 244 239 227 230 237 239 243 236 223 193 201 208 207 207 214 224 221 231 236 232 224 229 237 234 247 251 216 208
276 271 228 224 227 236 235 234 238 242 246 246 246 239 232 235 230 229 230 234 234 235 232 216 190 199 204 209 205 216 223 234 231 233 230 232 230 230 235 243 240 218 195
282 179 208 195 180 199 227 238 244 245 241 238 237 226 230 226 233 225 225 217 223 222 200 185 188 193 198 202 216 226 228 223 214 240 226 230 225 236 246 239 228 214 213
316 175 262 271 214 215 224 233 247 242 227 226 218 220 222 227 210 213 208 215 202 187 182 186 187 188 194 209 222 228 203 204 232 235 229 224 222 238 244 226 228 216 209
322 330 345 277 251 258 250 237 245 222 210 207 208 214 220 194 195 197 202 196 187 176 180 182 185 196 205 224 214 205 207 209 234 247 241 227 228 230 226 220 213 208 203
334 329 318 259 273 283 256 232 216 201 192 193 202 194 188 188 189 194 189 185 181 172 178 183 188 218 212 191 207 222 205 209 238 244 234 235 232 236 223 213 202 195 189
302 316 293 305 303 255 252 206 191 183 183 190 182 179 179 175 181 182 172 173 163 167 172 179 190 193 182 190 206 187 215 235 242 252 243 233 227 241 223 210 190 195 195
290 293 312 342 307 241 219 187 176 178 178 177 175 169 172 176 181 169 169 162 160 166 176 178 186 190 193 199 207 208 228 240 254 240 228 229 239 239 219 204 187 196 194
296 290 343 337 308 259 237 180 176 171 170 171 172 168 167 174 172 164 160 162 167 179 187 183 189 182 194 213 217 224 236 237 237 234 230 238 252 223 209 194 192 202 202
338 320 322 319 340 308 207 165 161 169 162 162 162 164 165 167 166 166 170 167 171 168 176 182 187 198 209 204 225 229 238 243 228 234 232 247 204 188 184 181 192 199 203
335 314 318 316 338 334 163 175 157 159 149 151 156 160 163 165 170 169 164 166 175 173 178 190 194 205 211 223 235 227 226 224 223 241 221 176 182 183 183 183 180 175 183
331 319 303 315 329 287 172 161 152 149 148 152 158 163 168 166 169 169 167 175 177 181 181 193 192 202 220 234 212 203 192 219 218 206 185 181 181 175 181 179 168 161 162
323 319 319 324 317 315 213 158 145 149 150 160 160 169 172 166 165 171 177 179 188 186 186 190 193 208 214 188 183 179 184 204 200 196 192 191 184 172 179 178 178 170 152
302 308 320 327 328 330 200 163 154 157 156 160 170 174 165 162 167 177 182 180 182 182 185 187 186 208 180 179 173 175 184 209 204 185 179 186 181 172 179 181 181 169 153
293 303 328 331 313 259 222 149 160 158 164 170 175 171 159 162 169 176 179 182 179 181 176 178 169 167 175 181 187 184 190 194 212 175 165 158 163 170 174 173 169 164 160
289 300 318 320 288 182 208 163 158 164 159 152 149 147 152 160 167 170 178 175 181 183 178 177 170 174 173 177 177 182 193 214 174 172 168 152 159 172 162 163 170 174 173
292 298 307 301 279 246 182 167 167 166 152 142 142 148 152 150 156 167 175 178 184 185 186 187 172 168 170 178 176 179 187 184 175 166 169 159 156 159 157 159 174 180 174
283 284 289 294 282 262 183 162 159 155 146 146 138 143 150 155 156 158 165 178 192 192 189 180 178 172 173 176 176 177 186 183 173 162 163 159 158 156 152 166 171 170 178
278 287 287 295 253 199 169 160 155 160 155 146 148 149 153 166 171 170 167 177 190 191 189 195 187 145 167 172 170 146 165 166 164 166 168 168 167 167 167 168 168 172 178